Notices

What's New in latest Release from April 7th, 2021:

- Updated Glossary, including Speed of Maximum Gust, and Total Hourly Precipitation

- Updated national and regional climate services offices contacts and prices information

- Addition of station inventory lists for 1981-2010, 1971-2000, and 1961-1990 Normals.

If you haven't already, please take our survey and provide feedback about our website: https://eccc.sondage-survey.ca/f/LanguageSelection.aspx?s=442ca660-fcf1-47c0-95a9-59707d6fd709

Hourly Data Report for August 27, 2016

TORONTO CITY
ONTARIO

43°40'00.000" N
79°24'00.000" W
112.50 m
6158355
71508
XTO

Download Data

Hourly Data (August 2016)
Hourly Data Report for August 27, 2016
TIME
LST
Temp Definition
°C
Dew Point Definition
°C
Rel Hum Definition
%
Precip. Amount Definition
mm

Wind Dir Definition
10's deg

Wind Spd Definition
km/h
Visibility Definition
km
Stn Press Definition
kPa
Hmdx Definition


Wind Chill Definition


Weather Definition


00:00 21.6 14.1 62 0.0 LegendMM LegendMM   100.78 25   LegendNANA
01:00 20.9 13.0 61 0.0 LegendMM LegendMM   100.80     LegendNANA
02:00 20.3 12.1 59 0.0 LegendMM LegendMM   100.82     LegendNANA
03:00 18.8 12.9 69 0.0 LegendMM LegendMM   100.83     LegendNANA
04:00 18.6 12.8 69 0.0 LegendMM LegendMM   100.89     LegendNANA
05:00 18.9 13.1 69 0.0 LegendMM LegendMM   100.91     LegendNANA
06:00 19.0 13.4 70 0.0 LegendMM LegendMM   100.95     LegendNANA
07:00 20.1 14.3 69 0.0 LegendMM LegendMM   100.98     LegendNANA
08:00 21.5 15.0 66 0.0 LegendMM LegendMM   100.95 25   LegendNANA
09:00 22.3 15.4 65 0.0 LegendMM LegendMM   100.99 27   LegendNANA
10:00 24.0 14.8 56 0.0 LegendMM LegendMM   100.96 28   LegendNANA
11:00 24.1 15.1 57 0.0 LegendMM LegendMM   100.93 28   LegendNANA
12:00 24.4 16.6 62 0.0 LegendMM LegendMM   100.90 29   LegendNANA
13:00 25.7 14.8 51 0.0 LegendMM LegendMM   100.88 30   LegendNANA
14:00 25.2 14.4 51 0.0 LegendMM LegendMM   100.84 29   LegendNANA
15:00 25.9 12.1 42 0.0 LegendMM LegendMM   100.79 28   LegendNANA
16:00 25.9 12.3 43 0.0 LegendMM LegendMM   100.78 28   LegendNANA
17:00 25.7 12.2 43 0.0 LegendMM LegendMM   100.79 28   LegendNANA
18:00 24.9 12.3 45 0.0 LegendMM LegendMM   100.76 27   LegendNANA
19:00 24.5 10.7 42 0.0 LegendMM LegendMM   100.75 26   LegendNANA
20:00 23.5 13.3 53 0.0 LegendMM LegendMM   100.72 26   LegendNANA
21:00 22.8 17.4 71 0.0 LegendMM LegendMM   100.73 28   LegendNANA
22:00 22.9 16.9 69 0.0 LegendMM LegendMM   100.71 28   LegendNANA
23:00 22.8 17.7 73 0.0 LegendMM LegendMM   100.69 29   LegendNANA

Notes on Data Quality.

Legend

  • E = Estimated
  • M = Missing
  • NA = Not Available*
  • [empty] = Indicates an unobserved value
Date modified: